Regional Weather Roundup
Issued by NWS Wilmington, NC

Home | Current Version | Previous Version | Text Only | Print | Product List | Glossary On
Versions: 1 2 3 4 5 6 7 8 9 10 11 12 13 14 15 16 17 18 19 20 21 22 23 24 25 26 27 28 29 30 31 32 33 34 35 36 37 38 39 40 41 42 43 44 45 46 47 48 49
000
ASUS42 KILM 202110
RWRILM
RWRILM
REGIONAL HOURLY WEATHER ROUNDUP
NATIONAL WEATHER SERVICE WILMINGTON NC
500 PM EDT SAT SEP 20 2014

NOTE: "FAIR" INDICATES FEW OR NO CLOUDS BELOW 12,000 FEET WITH NO
SIGNIFICANT WEATHER AND/OR OBSTRUCTIONS TO VISIBILITY.

...............WFO WILMINGTON COUNTY WARNING AREA...............

......COASTAL NC AND SC COUNTIES......

CITY           SKY/WX    TMP DP  RH WIND       PRES   REMARKS
WILMINGTON     CLOUDY    76  68  76 NE16      29.97F
SOUTHPORT      CLOUDY    74  67  77 N12       29.95F
N MYRTLE BEACH CLOUDY    75  66  73 N10       29.96F
MYRTLE BEACH   MOSUNNY   75  64  69 N12       29.96F

......INLAND NC AND SC COUNTIES.......

CITY           SKY/WX    TMP DP  RH WIND       PRES   REMARKS
LUMBERTON      CLOUDY    78  62  57 N8        29.99F
ELIZABETHTOWN  CLOUDY    77  65  66 CALM      30.00F
WHITEVILLE     CLOUDY    76  65  69 N5        29.98F
FLORENCE       CLOUDY    78  60  53 NE9       30.00F
DARLINGTON     PTSUNNY   79  63  57 N6        30.01F

....................REST OF NORTH CAROLINA......................

.........EASTERN NC.........

CITY           SKY/WX    TMP DP  RH WIND       PRES   REMARKS
CAPE HATTERAS  HVY RAIN  70  70 100 SE17      30.02S FOG
JACKSONVILLE   CLOUDY    75  66  73 N10       30.00F
MOREHEAD CITY  LGT RAIN  75  71  87 NE10      29.99F
KENANSVILLE    CLOUDY    77  64  65 N6        30.02F
NEW BERN       CLOUDY    77  68  73 NE12      30.02F
ELIZABETH CITY CLOUDY    73  68  83 NE13      30.05F

.........CENTRAL NC.........

CITY           SKY/WX    TMP DP  RH WIND       PRES   REMARKS
RALEIGH DURHAM PTSUNNY   79  57  46 NE8       30.05F
ROCKY MOUNT    MOSUNNY   79  61  53 NE10      30.04F
ROANOKE RAPIDS NOT AVBL
FAYETTEVILLE   CLOUDY    78  60  53 NE10      30.01F
HOFFMAN        NOT AVBL

.........WESTERN NC.........

CITY           SKY/WX    TMP DP  RH WIND       PRES   REMARKS
CHARLOTTE      MOSUNNY   82  57  42 N12       30.06F
GREENSBORO     MOSUNNY   80  57  45 NE8       30.07F
HICKORY        NOT AVBL
BOONE          NOT AVBL
ASHEVILLE      NOT AVBL

.....................REST OF SOUTH CAROLINA.....................

.........EASTERN SC.........

CITY           SKY/WX    TMP DP  RH WIND       PRES   REMARKS
CHARLESTON     CLOUDY    74  66  76 N9        29.96F
BEAUFORT MCAS  CLOUDY    75  67  76 SW9       29.97F
HILTON HEAD    NOT AVBL

.........CENTRAL SC.........

CITY           SKY/WX    TMP DP  RH WIND       PRES   REMARKS
COLUMBIA       PTSUNNY   82  55  39 NE9       30.01F
ORANGEBURG     CLOUDY    76  61  59 N9        30.00F
SUMTER SHAW    CLOUDY    78  60  54 NE8       29.99F

.........WESTERN SC.........

CITY           SKY/WX    TMP DP  RH WIND       PRES   REMARKS
GREENVILLE     NOT AVBL
ROCK HILL      MOSUNNY   80  57  45 NE7       30.05F
ANDERSON       SUNNY     82  58  43 N9        30.06F
CLEMSON        NOT AVBL
GREENWOOD      SUNNY     83  58  42 N8        30.05F


...................COASTAL AND OFFSHORE REPORTS..................

................LOCAL PIERS AND NC RESERVE................


STATION/POSITION TIME  SKY/WX   TEMP    WIND        PRES    VSBY
                                AIR SEA DIR/SP/G
                 (UTC)          (F)     (DEG/KT/KT) (MB)    (MI)
JOHNY MRCER PIER 2100            76 80   20/ 18/ 20 1014.2F
NC RESRV MASNBRO 2000            76      20/  8     1015.0S
OCEAN CREST PIER 2100            75 79  340/ 11/ 18 1013.4F
SPRINGMAID  PIER 2100            75 79  360/ 11/ 15 1014.4F


................COASTAL AND OFFSHORE BUOYS................


STATION/POSITION TIME  SKY/WX   TEMP    WIND        PRES    VSBY
                                AIR SEA DIR/SP/G
                 (UTC)          (F)     (DEG/KT/KT) (MB)    (MI)
DIMNDSHOAL 41025 2100            76     170/  8/ 14 1015.5F
WVE H/P(F/S)=  7/10 WND WVE H/P(F/S)=  2/ 4 SWL H/P/D(F/S/D)=  7/ 70/10

CAPE LOOKOUT     2000            74      20/ 14/ 20 1015.4F
ONSLOW BAY 41036 2100            76 83   30/ 21/ 25 1014.4F
WVE H/P(F/S)=  6/ 5 WND WVE H/P(F/S)=  5/ 5 SWL H/P/D(F/S/D)=  3/ 80/10

5 WRITEBCH 41038 2000            73 80   30/ 19/ 23   N/A
MASONBORO  41110 2100               80                N/A
WVE H/P(F/S)=  5/ 5 WND WVE H/P(F/S)=  5/ 5 SWL H/P/D(F/S/D)=  2/ 90/11

WILM HARBR 41108 2100               80                N/A
WVE H/P(F/S)=  5/ 7 WND WVE H/P(F/S)=  5/ 7

27WRITEBCH 41037 2000            74 81   50/ 17/ 21 1014.0F
FRYING PAN 41013 NOT AVBL
SUNST NRSH 41024 2000            77      40/ 14/ 17 1014.7F
CAPRS NRSH 41029 2000            71      30/ 10/ 14   N/A
EDISTO     41004 2100            77 82   10/ 21/ 27 1011.7F
WVE H/P(F/S)=  8/ 7 WND WVE H/P(F/S)=  8/ 7



..........OFFSHORE BUOYS BEYOND 100 NM OFFSHORE...........
.....IN A TRIANGLE---HAT TO BERMUDA TO BAHAMAS TO HAT.....


STATION/POSITION TIME  SKY/WX   TEMP    WIND        PRES    VSBY
                                AIR SEA DIR/SP/G
                 (UTC)          (F)     (DEG/KT/KT) (MB)    (MI)
150E HAT   41001 NOT AVBL
W BERMUDA  41048 2045            81 81  140/ 16/ 19 1017.1F
WVE H/P(F/S)=  6/ 9 WND WVE H/P(F/S)=  5/ 5 SWL H/P/D(F/S/D)=  3/ 30/ 9

ATLANTIC S 41049 2029            84 85  110/ 12/ 12 1019.1R
WVE H/P(F/S)=  3/ 9 WND WVE H/P(F/S)=  2/ 5 SWL H/P/D(F/S/D)=  3/100/ 9

E BAHAMAS  41046 2040            83 85   90/ 12/ 14 1015.7F
WVE H/P(F/S)=  4/ 6 WND WVE H/P(F/S)=  2/ 5 SWL H/P/D(F/S/D)=  3/120/ 6

NE BAHAMAS 41047 2046            82 83  160/ 17/ 23 1015.7R
WVE H/P(F/S)=  5/ 5 WND WVE H/P(F/S)=  5/ 5

120E CANVRL41010 2100            78 84  260/ 12/ 16 1010.1R
WVE H/P(F/S)=  7/ 9 WND WVE H/P(F/S)=  5/ 5 SWL H/P/D(F/S/D)=  5/ 20/ 9


END


USA.gov is the U.S. government's official web portal to all federal, state and local government web resources and services.